| time (UTC) | temp F | wind direction | speed MPH | gust MPH | rain 1hr in | rain 24hr in | rain mn in | humidity % | barometer mb |
| 20260831220226 | 76 | 323 | 2.0 | 7.0 | 0.00 | 0.00 | 0.00 | 55 | 1006.2 |
| 20260831215727 | 76 | 310 | 2.0 | 6.0 | 0.00 | 0.00 | 0.00 | 54 | 1006.2 |
| 20260831215226 | 76 | 334 | 1.0 | 8.0 | 0.00 | 0.00 | 0.00 | 53 | 1006.2 |
| 20260831214726 | 76 | 334 | 1.0 | 8.0 | 0.00 | 0.00 | 0.00 | 54 | 1006.2 |
| 20260831214226 | 76 | 326 | 1.0 | 8.0 | 0.00 | 0.00 | 0.00 | 53 | 1006.2 |
| 20260831213726 | 76 | 2 | 0.0 | 7.0 | 0.00 | 0.00 | 0.00 | 53 | 1006.4 |
| 20260831213226 | 76 | 320 | 0.0 | 9.0 | 0.00 | 0.00 | 0.00 | 53 | 1006.4 |
| 20260831212726 | 76 | 327 | 3.0 | 9.0 | 0.00 | 0.00 | 0.00 | 53 | 1006.4 |
| 20260831212226 | 76 | 316 | 4.0 | 9.0 | 0.00 | 0.00 | 0.00 | 54 | 1006.4 |
| 20260831211726 | 76 | 336 | 5.0 | 8.0 | 0.00 | 0.00 | 0.00 | 54 | 1006.4 |
| 20260831211226 | 76 | 5 | 4.0 | 8.0 | 0.00 | 0.00 | 0.00 | 54 | 1006.5 |
| 20260831210726 | 76 | 334 | 3.0 | 8.0 | 0.00 | 0.00 | 0.00 | 54 | 1006.4 |
| 20260831210226 | 76 | 337 | 5.0 | 9.0 | 0.00 | 0.00 | 0.00 | 55 | 1006.4 |
| 20260831205726 | 75 | 334 | 5.0 | 9.0 | 0.00 | 0.00 | 0.00 | 55 | 1006.5 |
| 20260831205228 | 75 | 340 | 4.0 | 9.0 | 0.00 | 0.00 | 0.00 | 56 | 1006.4 |
| 20260831204726 | 74 | 337 | 5.0 | 9.0 | 0.00 | 0.00 | 0.00 | 56 | 1006.4 |
| 20260831204226 | 74 | 340 | 3.0 | 9.0 | 0.00 | 0.00 | 0.00 | 57 | 1006.5 |
| 20260831203726 | 74 | 338 | 5.0 | 9.0 | 0.00 | 0.00 | 0.00 | 57 | 1006.5 |
| 20260831203226 | 73 | 348 | 5.0 | 11.0 | 0.00 | 0.00 | 0.00 | 57 | 1006.5 |
| 20260831202726 | 73 | 330 | 6.0 | 11.0 | 0.00 | 0.00 | 0.00 | 57 | 1006.6 |
| 20260831202226 | 72 | 336 | 7.0 | 11.0 | 0.00 | 0.00 | 0.00 | 56 | 1006.7 |
| 20260831201726 | 72 | 326 | 1.0 | 9.0 | 0.00 | 0.00 | 0.00 | 55 | 1006.6 |
| 20260831201226 | 72 | 326 | 4.0 | 8.0 | 0.00 | 0.00 | 0.00 | 54 | 1006.6 |
| 20260831200727 | 72 | 324 | 5.0 | 8.0 | 0.00 | 0.00 | 0.00 | 55 | 1006.6 |
| 20260831200226 | 72 | 355 | 6.0 | 7.0 | 0.00 | 0.00 | 0.00 | 55 | 1006.6 |
| 20260831195726 | 73 | 326 | 0.0 | 8.0 | 0.00 | 0.00 | 0.00 | 55 | 1006.6 |
| 20260831195226 | 73 | 331 | 3.0 | 8.0 | 0.00 | 0.00 | 0.00 | 54 | 1006.6 |
| 20260831194726 | 73 | 323 | 0.0 | 8.0 | 0.00 | 0.00 | 0.00 | 53 | 1006.6 |
| 20260831194226 | 74 | 336 | 3.0 | 9.0 | 0.00 | 0.00 | 0.00 | 52 | 1006.5 |
| 20260831193727 | 75 | 330 | 2.0 | 9.0 | 0.00 | 0.00 | 0.00 | 51 | 1006.6 |
| 20260831193625 | 75 | 337 | 1.0 | 9.0 | 0.00 | 0.00 | 0.00 | 49 | 1006.7 |
| 20260831193226 | 75 | 337 | 1.0 | 9.0 | 0.00 | 0.00 | 0.00 | 49 | 1006.7 |
| 20260831192726 | 76 | 333 | 2.0 | 9.0 | 0.00 | 0.00 | 0.00 | 49 | 1006.7 |
| 20260831192226 | 76 | 348 | 3.0 | 9.0 | 0.00 | 0.00 | 0.00 | 48 | 1006.7 |
| 20260831191726 | 77 | 341 | 5.0 | 9.0 | 0.00 | 0.00 | 0.00 | 47 | 1006.6 |
| 20260831191226 | 77 | 345 | 7.0 | 9.0 | 0.00 | 0.00 | 0.00 | 46 | 1006.7 |
| 20260831190726 | 78 | 347 | 7.0 | 8.0 | 0.00 | 0.00 | 0.00 | 45 | 1006.9 |
| 20260831190226 | 78 | 333 | 0.0 | 7.0 | 0.00 | 0.00 | 0.00 | 44 | 1006.9 |
| 20260831185726 | 78 | 326 | 0.0 | 7.0 | 0.00 | 0.00 | 0.00 | 44 | 1007.0 |
| 20260831185226 | 78 | 351 | 0.0 | 6.0 | 0.00 | 0.00 | 0.00 | 44 | 1007.0 |
| 20260831184726 | 78 | 345 | 1.0 | 6.0 | 0.00 | 0.00 | 0.00 | 44 | 1007.0 |
| 20260831184226 | 78 | 0 | 0.0 | 0.0 | 0.00 | 0.00 | 0.00 | 44 | 1007.1 |
| 20260831183726 | 78 | 0 | 0.0 | 0.0 | 0.00 | 0.00 | 0.00 | 44 | 1007.0 |
| 20260831183226 | 79 | 0 | 0.0 | 0.0 | 0.00 | 0.00 | 0.00 | 44 | 1007.0 |
| 20260831182726 | 78 | 0 | 0.0 | 0.0 | 0.00 | 0.00 | 0.00 | 44 | 1007.0 |
| 20260831182226 | 78 | 0 | 0.0 | 0.0 | 0.00 | 0.00 | 0.00 | 44 | 1007.1 |
| 20260831181726 | 78 | 0 | 0.0 | 0.0 | 0.00 | 0.00 | 0.00 | 44 | 1007.1 |
| 20260831181226 | 78 | 0 | 0.0 | 6.0 | 0.00 | 0.00 | 0.00 | 44 | 1007.1 |
| 20260831180726 | 78 | 331 | 0.0 | 6.0 | 0.00 | 0.00 | 0.00 | 44 | 1007.1 |
| 20260831180226 | 78 | 327 | 3.0 | 6.0 | 0.00 | 0.00 | 0.00 | 45 | 1007.1 |
| 20260831175726 | 78 | 313 | 0.0 | 3.0 | 0.00 | 0.00 | 0.00 | 46 | 1007.1 |
| 20260831175227 | 78 | 0 | 0.0 | 0.0 | 0.00 | 0.00 | 0.00 | 46 | 1007.1 |
| 20260831174726 | 78 | 0 | 0.0 | 5.0 | 0.00 | 0.00 | 0.00 | 46 | 1007.1 |
| 20260831174226 | 78 | 340 | 0.0 | 5.0 | 0.00 | 0.00 | 0.00 | 47 | 1007.1 |
| 20260831173726 | 77 | 329 | 0.0 | 5.0 | 0.00 | 0.00 | 0.00 | 47 | 1007.1 |
| 20260831173226 | 78 | 0 | 0.0 | 5.0 | 0.00 | 0.00 | 0.00 | 46 | 1007.2 |
| 20260831172726 | 78 | 326 | 0.0 | 5.0 | 0.00 | 0.00 | 0.00 | 46 | 1007.2 |
| 20260831172226 | 78 | 326 | 0.0 | 5.0 | 0.00 | 0.00 | 0.00 | 46 | 1007.1 |
| 20260831171726 | 78 | 0 | 0.0 | 0.0 | 0.00 | 0.00 | 0.00 | 46 | 1007.1 |
| 20260831171226 | 78 | 0 | 0.0 | 0.0 | 0.00 | 0.00 | 0.00 | 47 | 1007.2 |
| 20260831170726 | 78 | 0 | 0.0 | 0.0 | 0.00 | 0.00 | 0.00 | 48 | 1007.1 |
| 20260831170226 | 78 | 0 | 0.0 | 0.0 | 0.00 | 0.00 | 0.00 | 48 | 1007.1 |
| 20260831165726 | 77 | 0 | 0.0 | 0.0 | 0.00 | 0.00 | 0.00 | 49 | 1007.1 |
| 20260831165226 | 77 | 0 | 0.0 | 0.0 | 0.00 | 0.00 | 0.00 | 50 | 1007.1 |
| 20260831164727 | 76 | 0 | 0.0 | 0.0 | 0.00 | 0.00 | 0.00 | 52 | 1007.2 |
| 20260831164227 | 76 | 0 | 0.0 | 0.0 | 0.00 | 0.00 | 0.00 | 53 | 1007.2 |
| 20260831163726 | 75 | 0 | 0.0 | 0.0 | 0.00 | 0.00 | 0.00 | 56 | 1007.3 |
| 20260831163226 | 75 | 0 | 0.0 | 0.0 | 0.00 | 0.00 | 0.00 | 58 | 1007.3 |
| 20260831162726 | 74 | 0 | 0.0 | 0.0 | 0.00 | 0.00 | 0.00 | 60 | 1007.4 |
| 20260831162226 | 73 | 0 | 0.0 | 0.0 | 0.00 | 0.00 | 0.00 | 64 | 1007.4 |
| 20260831161726 | 71 | 0 | 0.0 | 0.0 | 0.00 | 0.00 | 0.00 | 67 | 1007.5 |
| 20260831161226 | 70 | 0 | 0.0 | 0.0 | 0.00 | 0.00 | 0.00 | 67 | 1007.5 |
| 20260831160726 | 68 | 0 | 0.0 | 0.0 | 0.00 | 0.00 | 0.00 | 71 | 1007.5 |
| 20260831160226 | 67 | 0 | 0.0 | 0.0 | 0.00 | 0.00 | 0.00 | 71 | 1007.6 |
| 20260831155726 | 67 | 0 | 0.0 | 0.0 | 0.00 | 0.00 | 0.00 | 72 | 1007.6 |
| 20260831155226 | 67 | 0 | 0.0 | 0.0 | 0.00 | 0.00 | 0.00 | 71 | 1007.6 |
| 20260831154726 | 67 | 0 | 0.0 | 0.0 | 0.00 | 0.00 | 0.00 | 73 | 1007.7 |
| 20260831154226 | 66 | 0 | 0.0 | 0.0 | 0.00 | 0.00 | 0.00 | 73 | 1007.7 |
| 20260831153726 | 67 | 0 | 0.0 | 0.0 | 0.00 | 0.00 | 0.00 | 71 | 1007.8 |
| 20260831153226 | 68 | 0 | 0.0 | 0.0 | 0.00 | 0.00 | 0.00 | 69 | 1007.8 |
| 20260831152726 | 68 | 0 | 0.0 | 0.0 | 0.00 | 0.00 | 0.00 | 71 | 1007.8 |
| 20260831152226 | 69 | 0 | 0.0 | 0.0 | 0.00 | 0.00 | 0.00 | 75 | 1007.9 |
| 20260831151726 | 68 | 0 | 0.0 | 0.0 | 0.00 | 0.00 | 0.00 | 78 | 1007.9 |
| 20260831151226 | 67 | 0 | 0.0 | 0.0 | 0.00 | 0.00 | 0.00 | 82 | 1008.0 |
| 20260831150726 | 66 | 0 | 0.0 | 0.0 | 0.00 | 0.00 | 0.00 | 85 | 1007.9 |
| 20260831150226 | 65 | 0 | 0.0 | 0.0 | 0.00 | 0.00 | 0.00 | 88 | 1007.9 |
| 20260831145726 | 65 | 0 | 0.0 | 0.0 | 0.00 | 0.00 | 0.00 | 91 | 1007.8 |
| 20260831145226 | 63 | 0 | 0.0 | 0.0 | 0.00 | 0.00 | 0.00 | 94 | 1007.8 |
| 20260831144726 | 62 | 0 | 0.0 | 0.0 | 0.00 | 0.00 | 0.00 | 95 | 1007.8 |
| 20260831144226 | 61 | 0 | 0.0 | 0.0 | 0.00 | 0.00 | 0.00 | 96 | 1007.8 |
| 20260831143726 | 60 | 0 | 0.0 | 0.0 | 0.00 | 0.00 | 0.00 | 96 | 1007.7 |
| 20260831143226 | 59 | 0 | 0.0 | 0.0 | 0.00 | 0.00 | 0.00 | 97 | 1007.7 |
| 20260831142726 | 58 | 0 | 0.0 | 0.0 | 0.00 | 0.00 | 0.00 | 97 | 1007.6 |
| 20260831142226 | 57 | 0 | 0.0 | 0.0 | 0.00 | 0.00 | 0.00 | 97 | 1007.5 |
| 20260831141726 | 57 | 0 | 0.0 | 0.0 | 0.00 | 0.00 | 0.00 | 97 | 1007.5 |
| 20260831141226 | 56 | 0 | 0.0 | 0.0 | 0.00 | 0.00 | 0.00 | 97 | 1007.5 |
| 20260831140726 | 56 | 0 | 0.0 | 0.0 | 0.00 | 0.00 | 0.00 | 97 | 1007.5 |
| 20260831140226 | 56 | 0 | 0.0 | 0.0 | 0.00 | 0.00 | 0.00 | 97 | 1007.5 |
| 20260831135726 | 55 | 0 | 0.0 | 0.0 | 0.00 | 0.00 | 0.00 | 97 | 1007.5 |
| 20260831135226 | 56 | 0 | 0.0 | 0.0 | 0.00 | 0.00 | 0.00 | 97 | 1007.4 |
| 20260831134726 | 55 | 0 | 0.0 | 0.0 | 0.00 | 0.00 | 0.00 | 97 | 1007.5 |
| 20260831134226 | 55 | 0 | 0.0 | 0.0 | 0.00 | 0.00 | 0.00 | 97 | 1007.5 |
| 20260831133726 | 56 | 0 | 0.0 | 0.0 | 0.00 | 0.00 | 0.00 | 97 | 1007.6 |
| 20260831133226 | 55 | 0 | 0.0 | 0.0 | 0.00 | 0.00 | 0.00 | 97 | 1007.6 |
| 20260831132726 | 55 | 0 | 0.0 | 0.0 | 0.00 | 0.00 | 0.00 | 97 | 1007.6 |
| 20260831132226 | 56 | 0 | 0.0 | 0.0 | 0.00 | 0.00 | 0.00 | 97 | 1007.6 |
| 20260831131726 | 56 | 0 | 0.0 | 0.0 | 0.00 | 0.00 | 0.00 | 97 | 1007.7 |
| 20260831131226 | 55 | 0 | 0.0 | 0.0 | 0.00 | 0.00 | 0.00 | 97 | 1007.7 |
| 20260831130726 | 56 | 0 | 0.0 | 0.0 | 0.00 | 0.00 | 0.00 | 97 | 1007.7 |
| 20260831130226 | 55 | 0 | 0.0 | 0.0 | 0.00 | 0.00 | 0.00 | 97 | 1007.8 |
| 20260831125726 | 55 | 0 | 0.0 | 0.0 | 0.00 | 0.00 | 0.00 | 97 | 1007.8 |
| 20260831125226 | 55 | 0 | 0.0 | 0.0 | 0.00 | 0.00 | 0.00 | 96 | 1007.8 |
| 20260831124726 | 56 | 0 | 0.0 | 0.0 | 0.00 | 0.00 | 0.00 | 96 | 1007.7 |
| 20260831124226 | 56 | 0 | 0.0 | 0.0 | 0.00 | 0.00 | 0.00 | 96 | 1007.7 |
| 20260831123726 | 56 | 0 | 0.0 | 0.0 | 0.00 | 0.00 | 0.00 | 96 | 1007.7 |
| 20260831123226 | 56 | 0 | 0.0 | 0.0 | 0.00 | 0.00 | 0.00 | 96 | 1007.8 |
| 20260831122726 | 56 | 0 | 0.0 | 0.0 | 0.00 | 0.00 | 0.00 | 96 | 1007.8 |
| 20260831122226 | 56 | 0 | 0.0 | 0.0 | 0.00 | 0.00 | 0.00 | 96 | 1007.8 |
| 20260831121727 | 56 | 0 | 0.0 | 0.0 | 0.00 | 0.00 | 0.00 | 96 | 1007.9 |
| 20260831121227 | 56 | 0 | 0.0 | 0.0 | 0.00 | 0.00 | 0.00 | 96 | 1008.0 |
| 20260831120726 | 56 | 0 | 0.0 | 0.0 | 0.00 | 0.00 | 0.00 | 96 | 1008.0 |
| 20260831120226 | 56 | 0 | 0.0 | 0.0 | 0.00 | 0.00 | 0.00 | 96 | 1008.0 |
| 20260831115726 | 56 | 0 | 0.0 | 0.0 | 0.00 | 0.00 | 0.00 | 96 | 1008.0 |
| 20260831115226 | 56 | 0 | 0.0 | 0.0 | 0.00 | 0.00 | 0.00 | 95 | 1008.1 |
| 20260831114726 | 56 | 0 | 0.0 | 0.0 | 0.00 | 0.00 | 0.00 | 95 | 1008.1 |
| 20260831114229 | 56 | 0 | 0.0 | 0.0 | 0.00 | 0.00 | 0.00 | 95 | 1008.1 |
| 20260831113726 | 56 | 0 | 0.0 | 0.0 | 0.00 | 0.00 | 0.00 | 95 | 1008.2 |
| 20260831113226 | 56 | 0 | 0.0 | 0.0 | 0.00 | 0.00 | 0.00 | 95 | 1008.1 |
| 20260831112727 | 56 | 0 | 0.0 | 0.0 | 0.00 | 0.00 | 0.00 | 95 | 1008.2 |
| 20260831112226 | 56 | 0 | 0.0 | 0.0 | 0.00 | 0.00 | 0.00 | 95 | 1008.3 |
| 20260831111726 | 56 | 0 | 0.0 | 0.0 | 0.00 | 0.00 | 0.00 | 95 | 1008.3 |
| 20260831111226 | 56 | 0 | 0.0 | 0.0 | 0.00 | 0.00 | 0.00 | 95 | 1008.2 |
| 20260831110726 | 57 | 0 | 0.0 | 0.0 | 0.00 | 0.00 | 0.00 | 94 | 1008.2 |
| 20260831110226 | 57 | 0 | 0.0 | 0.0 | 0.00 | 0.00 | 0.00 | 94 | 1008.3 |
| 20260831105726 | 57 | 0 | 0.0 | 0.0 | 0.00 | 0.00 | 0.00 | 94 | 1008.2 |
| 20260831105226 | 57 | 0 | 0.0 | 0.0 | 0.00 | 0.00 | 0.00 | 94 | 1008.2 |
| 20260831104726 | 57 | 0 | 0.0 | 0.0 | 0.00 | 0.00 | 0.00 | 94 | 1008.3 |
| 20260831104226 | 57 | 0 | 0.0 | 0.0 | 0.00 | 0.00 | 0.00 | 94 | 1008.3 |
| 20260831103726 | 57 | 0 | 0.0 | 0.0 | 0.00 | 0.00 | 0.00 | 93 | 1008.2 |
| 20260831103226 | 57 | 0 | 0.0 | 0.0 | 0.00 | 0.00 | 0.00 | 93 | 1008.2 |
| 20260831102726 | 57 | 0 | 0.0 | 0.0 | 0.00 | 0.00 | 0.00 | 93 | 1008.3 |
| 20260831102226 | 57 | 0 | 0.0 | 0.0 | 0.00 | 0.00 | 0.00 | 94 | 1008.3 |
| 20260831101726 | 57 | 0 | 0.0 | 0.0 | 0.00 | 0.00 | 0.00 | 94 | 1008.3 |
| 20260831101226 | 57 | 0 | 0.0 | 0.0 | 0.00 | 0.00 | 0.00 | 94 | 1008.4 |
| 20260831100726 | 57 | 0 | 0.0 | 0.0 | 0.00 | 0.00 | 0.00 | 94 | 1008.5 |
| 20260831100226 | 57 | 0 | 0.0 | 0.0 | 0.00 | 0.00 | 0.00 | 94 | 1008.5 |
| 20260831095726 | 57 | 0 | 0.0 | 0.0 | 0.00 | 0.00 | 0.00 | 94 | 1008.6 |
| 20260831095226 | 57 | 0 | 0.0 | 0.0 | 0.00 | 0.00 | 0.00 | 95 | 1008.6 |
| 20260831094726 | 57 | 0 | 0.0 | 0.0 | 0.00 | 0.00 | 0.00 | 95 | 1008.6 |
| 20260831094226 | 57 | 0 | 0.0 | 0.0 | 0.00 | 0.00 | 0.00 | 95 | 1008.7 |
| 20260831093726 | 57 | 0 | 0.0 | 0.0 | 0.00 | 0.00 | 0.00 | 95 | 1008.8 |
| 20260831093226 | 57 | 0 | 0.0 | 0.0 | 0.00 | 0.00 | 0.00 | 95 | 1008.8 |
| 20260831092728 | 57 | 0 | 0.0 | 0.0 | 0.00 | 0.00 | 0.00 | 95 | 1008.8 |
| 20260831092226 | 57 | 0 | 0.0 | 0.0 | 0.00 | 0.00 | 0.00 | 94 | 1008.9 |
| 20260831091726 | 57 | 0 | 0.0 | 0.0 | 0.00 | 0.00 | 0.00 | 94 | 1008.9 |
| 20260831091226 | 57 | 0 | 0.0 | 0.0 | 0.00 | 0.00 | 0.00 | 94 | 1009.0 |
| 20260831090726 | 57 | 0 | 0.0 | 0.0 | 0.00 | 0.00 | 0.00 | 94 | 1009.1 |
| 20260831090226 | 57 | 0 | 0.0 | 0.0 | 0.00 | 0.00 | 0.00 | 94 | 1009.1 |
| 20260831085726 | 58 | 0 | 0.0 | 0.0 | 0.00 | 0.00 | 0.00 | 94 | 1009.2 |
| 20260831085226 | 58 | 0 | 0.0 | 0.0 | 0.00 | 0.00 | 0.00 | 93 | 1009.2 |
| 20260831084726 | 57 | 0 | 0.0 | 0.0 | 0.00 | 0.00 | 0.00 | 93 | 1009.3 |
| 20260831084226 | 57 | 0 | 0.0 | 0.0 | 0.00 | 0.00 | 0.00 | 93 | 1009.4 |
| 20260831083726 | 57 | 0 | 0.0 | 0.0 | 0.00 | 0.00 | 0.00 | 94 | 1009.5 |
| 20260831083226 | 57 | 0 | 0.0 | 0.0 | 0.00 | 0.00 | 0.00 | 93 | 1009.6 |
| 20260831082726 | 57 | 0 | 0.0 | 0.0 | 0.00 | 0.00 | 0.00 | 92 | 1009.5 |
| 20260831082226 | 57 | 0 | 0.0 | 0.0 | 0.00 | 0.00 | 0.00 | 91 | 1009.5 |
| 20260831081726 | 58 | 0 | 0.0 | 0.0 | 0.00 | 0.00 | 0.00 | 91 | 1009.5 |
| 20260831081448 | 58 | 0 | 0.0 | 0.0 | 0.00 | 0.00 | 0.00 | 89 | 1009.6 |
| 20260831081227 | 58 | 0 | 0.0 | 0.0 | 0.00 | 0.00 | 0.00 | 89 | 1009.6 |
| 20260831080726 | 58 | 0 | 0.0 | 0.0 | 0.00 | 0.00 | 0.00 | 87 | 1009.6 |
| 20260831080226 | 59 | 0 | 0.0 | 0.0 | 0.00 | 0.00 | 0.00 | 86 | 1009.7 |
| 20260831075726 | 59 | 0 | 0.0 | 0.0 | 0.00 | 0.00 | 0.00 | 86 | 1009.7 |
| 20260831075226 | 59 | 0 | 0.0 | 0.0 | 0.00 | 0.00 | 0.00 | 86 | 1009.8 |
| 20260831074726 | 59 | 0 | 0.0 | 0.0 | 0.00 | 0.00 | 0.00 | 86 | 1009.8 |
| 20260831074226 | 59 | 0 | 0.0 | 0.0 | 0.00 | 0.00 | 0.00 | 85 | 1009.8 |
| 20260831073726 | 59 | 0 | 0.0 | 0.0 | 0.00 | 0.00 | 0.00 | 85 | 1009.8 |
| 20260831073226 | 60 | 0 | 0.0 | 0.0 | 0.00 | 0.00 | 0.00 | 85 | 1009.8 |
| 20260831072726 | 60 | 0 | 0.0 | 0.0 | 0.00 | 0.00 | 0.00 | 85 | 1009.8 |
| 20260831072226 | 60 | 0 | 0.0 | 0.0 | 0.00 | 0.00 | 0.00 | 85 | 1009.9 |
| 20260831071726 | 60 | 0 | 0.0 | 0.0 | 0.00 | 0.00 | 0.00 | 84 | 1010.0 |
| 20260831071226 | 60 | 0 | 0.0 | 0.0 | 0.00 | 0.00 | 0.00 | 84 | 1010.0 |
| 20260831070726 | 60 | 0 | 0.0 | 0.0 | 0.00 | 0.00 | 0.00 | 84 | 1010.1 |
| 20260831070226 | 60 | 0 | 0.0 | 0.0 | 0.00 | 0.00 | 0.00 | 84 | 1010.1 |
| 20260831065726 | 60 | 0 | 0.0 | 0.0 | 0.00 | 0.00 | 0.00 | 84 | 1010.2 |
| 20260831065226 | 60 | 0 | 0.0 | 0.0 | 0.00 | 0.00 | 0.00 | 84 | 1010.3 |
| 20260831064726 | 60 | 0 | 0.0 | 0.0 | 0.00 | 0.00 | 0.00 | 84 | 1010.2 |
| 20260831064226 | 60 | 0 | 0.0 | 0.0 | 0.00 | 0.00 | 0.00 | 84 | 1010.2 |
| 20260831063727 | 60 | 0 | 0.0 | 0.0 | 0.00 | 0.00 | 0.00 | 84 | 1010.3 |
| 20260831063226 | 60 | 0 | 0.0 | 0.0 | 0.00 | 0.00 | 0.00 | 84 | 1010.4 |
| 20260831062726 | 60 | 0 | 0.0 | 0.0 | 0.00 | 0.00 | 0.00 | 84 | 1010.4 |
| 20260831062226 | 60 | 0 | 0.0 | 0.0 | 0.00 | 0.00 | 0.00 | 84 | 1010.5 |
| 20260831061726 | 60 | 0 | 0.0 | 0.0 | 0.00 | 0.00 | 0.00 | 84 | 1010.6 |
| 20260831061226 | 60 | 0 | 0.0 | 0.0 | 0.00 | 0.00 | 0.00 | 84 | 1010.6 |
| 20260831060726 | 60 | 0 | 0.0 | 0.0 | 0.00 | 0.00 | 0.00 | 84 | 1010.6 |
| 20260831060226 | 60 | 0 | 0.0 | 0.0 | 0.00 | 0.00 | 0.00 | 84 | 1010.7 |
| 20260831055726 | 60 | 0 | 0.0 | 0.0 | 0.00 | 0.00 | 0.00 | 83 | 1010.7 |
| 20260831055226 | 60 | 0 | 0.0 | 0.0 | 0.00 | 0.00 | 0.00 | 83 | 1010.7 |
| 20260831054726 | 60 | 0 | 0.0 | 5.0 | 0.00 | 0.00 | 0.00 | 83 | 1010.8 |
| 20260831054226 | 60 | 0 | 0.0 | 5.0 | 0.00 | 0.00 | 0.00 | 82 | 1010.8 |
| 20260831053726 | 60 | 77 | 0.0 | 5.0 | 0.00 | 0.00 | 0.00 | 82 | 1010.8 |
| 20260831053226 | 60 | 0 | 1.0 | 1.0 | 0.00 | 0.00 | 0.00 | 82 | 1010.8 |
| 20260831052726 | 60 | 0 | 0.0 | 0.0 | 0.00 | 0.00 | 0.00 | 82 | 1011.0 |
| 20260831052225 | 60 | 0 | 0.0 | 0.0 | 0.00 | 0.00 | 0.00 | 81 | 1011.1 |
| 20260831051726 | 61 | 0 | 0.0 | 0.0 | 0.00 | 0.00 | 0.00 | 81 | 1011.1 |
| 20260831051227 | 61 | 0 | 0.0 | 0.0 | 0.00 | 0.00 | 0.00 | 80 | 1011.2 |
| 20260831050726 | 61 | 0 | 0.0 | 0.0 | 0.00 | 0.00 | 0.00 | 80 | 1011.2 |
| 20260831050225 | 61 | 0 | 0.0 | 0.0 | 0.00 | 0.00 | 0.00 | 80 | 1011.3 |
| 20260831045725 | 61 | 0 | 0.0 | 0.0 | 0.00 | 0.00 | 0.00 | 80 | 1011.3 |
| 20260831045225 | 61 | 0 | 0.0 | 0.0 | 0.00 | 0.00 | 0.00 | 80 | 1011.4 |
| 20260831044725 | 61 | 0 | 0.0 | 0.0 | 0.00 | 0.00 | 0.00 | 80 | 1011.4 |
| 20260831044225 | 61 | 0 | 0.0 | 0.0 | 0.00 | 0.00 | 0.00 | 80 | 1011.5 |
| 20260831043726 | 62 | 0 | 0.0 | 0.0 | 0.00 | 0.00 | 0.00 | 80 | 1011.5 |
| 20260831043225 | 62 | 0 | 0.0 | 7.0 | 0.00 | 0.00 | 0.00 | 79 | 1011.5 |
| 20260831042725 | 62 | 0 | 0.0 | 7.0 | 0.00 | 0.00 | 0.00 | 79 | 1011.5 |
| 20260831042225 | 62 | 345 | 0.0 | 7.0 | 0.00 | 0.00 | 0.00 | 79 | 1011.5 |
| 20260831041725 | 62 | 336 | 3.0 | 6.0 | 0.00 | 0.00 | 0.00 | 79 | 1011.5 |
| 20260831041225 | 62 | 0 | 0.0 | 9.0 | 0.00 | 0.00 | 0.00 | 79 | 1011.6 |
| 20260831040725 | 62 | 344 | 0.0 | 9.0 | 0.00 | 0.00 | 0.00 | 79 | 1011.6 |
| 20260831040225 | 62 | 7 | 1.0 | 9.0 | 0.00 | 0.00 | 0.00 | 79 | 1011.5 |
| 20260831035725 | 62 | 336 | 2.0 | 13.0 | 0.00 | 0.00 | 0.00 | 79 | 1011.6 |
| 20260831035225 | 62 | 331 | 2.0 | 13.0 | 0.00 | 0.00 | 0.00 | 79 | 1011.6 |
| 20260831034725 | 62 | 343 | 6.0 | 13.0 | 0.00 | 0.00 | 0.00 | 79 | 1011.6 |
| 20260831034226 | 62 | 340 | 8.0 | 15.0 | 0.00 | 0.00 | 0.00 | 78 | 1011.6 |
| 20260831033725 | 62 | 334 | 10.0 | 15.0 | 0.00 | 0.00 | 0.00 | 78 | 1011.6 |
| 20260831033225 | 62 | 350 | 7.0 | 15.0 | 0.00 | 0.00 | 0.00 | 77 | 1011.6 |
| 20260831032725 | 62 | 345 | 8.0 | 14.0 | 0.00 | 0.00 | 0.00 | 77 | 1011.6 |
| 20260831032225 | 63 | 333 | 8.0 | 14.0 | 0.00 | 0.00 | 0.00 | 77 | 1011.6 |
| 20260831031727 | 63 | 350 | 7.0 | 14.0 | 0.00 | 0.00 | 0.00 | 76 | 1011.6 |
| 20260831031225 | 63 | 338 | 7.0 | 14.0 | 0.00 | 0.00 | 0.00 | 76 | 1011.6 |
| 20260831030725 | 63 | 345 | 6.0 | 14.0 | 0.00 | 0.00 | 0.00 | 76 | 1011.6 |
| 20260831030225 | 63 | 338 | 7.0 | 14.0 | 0.00 | 0.00 | 0.00 | 75 | 1011.6 |
| 20260831025725 | 63 | 340 | 8.0 | 15.0 | 0.00 | 0.00 | 0.00 | 75 | 1011.6 |
| 20260831025225 | 63 | 333 | 3.0 | 15.0 | 0.00 | 0.00 | 0.00 | 74 | 1011.7 |
| 20260831024725 | 64 | 348 | 5.0 | 15.0 | 0.00 | 0.00 | 0.00 | 74 | 1011.7 |
| 20260831024225 | 64 | 337 | 8.0 | 13.0 | 0.00 | 0.00 | 0.00 | 74 | 1011.8 |
| 20260831023725 | 64 | 343 | 7.0 | 13.0 | 0.00 | 0.00 | 0.00 | 73 | 1011.8 |
| 20260831023226 | 64 | 338 | 6.0 | 18.0 | 0.00 | 0.00 | 0.00 | 73 | 1011.7 |
| 20260831022726 | 64 | 341 | 7.0 | 18.0 | 0.00 | 0.00 | 0.00 | 73 | 1011.8 |
| 20260831022225 | 64 | 343 | 9.0 | 18.0 | 0.00 | 0.00 | 0.00 | 72 | 1011.8 |
| 20260831021725 | 64 | 337 | 11.0 | 16.0 | 0.00 | 0.00 | 0.00 | 72 | 1011.8 |
| 20260831021225 | 65 | 347 | 9.0 | 16.0 | 0.00 | 0.00 | 0.00 | 71 | 1011.9 |
| 20260831020726 | 65 | 350 | 6.0 | 18.0 | 0.00 | 0.00 | 0.00 | 71 | 1012.0 |
| 20260831020226 | 65 | 347 | 9.0 | 18.0 | 0.00 | 0.00 | 0.00 | 70 | 1011.9 |
| 20260831015725 | 65 | 348 | 9.0 | 18.0 | 0.00 | 0.00 | 0.00 | 70 | 1012.0 |
| 20260831015225 | 65 | 341 | 11.0 | 19.0 | 0.00 | 0.00 | 0.00 | 69 | 1012.1 |
| 20260831014727 | 65 | 337 | 8.0 | 19.0 | 0.00 | 0.00 | 0.00 | 69 | 1012.1 |
| 20260831014225 | 65 | 337 | 10.0 | 19.0 | 0.00 | 0.00 | 0.00 | 67 | 1012.1 |
| 20260831013725 | 65 | 340 | 10.0 | 19.0 | 0.00 | 0.00 | 0.00 | 66 | 1012.2 |
| 20260831013225 | 65 | 341 | 10.0 | 19.0 | 0.00 | 0.00 | 0.00 | 66 | 1012.3 |
| 20260831012725 | 66 | 333 | 8.0 | 19.0 | 0.00 | 0.00 | 0.00 | 66 | 1012.3 |
| 20260831012226 | 66 | 341 | 9.0 | 20.0 | 0.00 | 0.00 | 0.00 | 66 | 1012.4 |
| 20260831011726 | 66 | 338 | 10.0 | 20.0 | 0.00 | 0.00 | 0.00 | 66 | 1012.5 |
| 20260831011226 | 66 | 319 | 10.0 | 20.0 | 0.00 | 0.00 | 0.00 | 66 | 1012.5 |
| 20260831010725 | 66 | 352 | 12.0 | 25.0 | 0.00 | 0.00 | 0.00 | 66 | 1012.6 |
| 20260831010225 | 66 | 357 | 13.0 | 25.0 | 0.00 | 0.00 | 0.00 | 66 | 1012.6 |
| 20260831005725 | 66 | 350 | 10.0 | 25.0 | 0.00 | 0.00 | 0.00 | 66 | 1012.7 |
| 20260831005225 | 66 | 333 | 14.0 | 25.0 | 0.00 | 0.00 | 0.00 | 66 | 1012.8 |
| 20260831004726 | 67 | 333 | 12.0 | 25.0 | 0.00 | 0.00 | 0.00 | 66 | 1012.9 |
| 20260831004225 | 67 | 344 | 13.0 | 25.0 | 0.00 | 0.00 | 0.00 | 66 | 1013.0 |
| 20260831003725 | 67 | 324 | 11.0 | 24.0 | 0.00 | 0.00 | 0.00 | 66 | 1013.0 |
| 20260831003225 | 67 | 8 | 13.0 | 24.0 | 0.00 | 0.00 | 0.00 | 65 | 1013.1 |
| 20260831002725 | 67 | 357 | 10.0 | 24.0 | 0.00 | 0.00 | 0.00 | 65 | 1013.1 |
| 20260831002225 | 67 | 322 | 11.0 | 19.0 | 0.00 | 0.00 | 0.00 | 65 | 1013.2 |
| 20260831001725 | 68 | 312 | 13.0 | 23.0 | 0.00 | 0.00 | 0.00 | 65 | 1013.2 |
| 20260831001225 | 68 | 305 | 10.0 | 23.0 | 0.00 | 0.00 | 0.00 | 65 | 1013.2 |
| 20260831000725 | 68 | 333 | 13.0 | 23.0 | 0.00 | 0.00 | 0.00 | 64 | 1013.2 |
| 20260831000226 | 68 | 341 | 13.0 | 24.0 | 0.00 | 0.00 | 0.00 | 64 | 1013.3 |
| 20260830235725 | 68 | 334 | 11.0 | 24.0 | 0.00 | 0.00 | 0.00 | 64 | 1013.3 |
| 20260830235225 | 68 | 316 | 10.0 | 24.0 | 0.00 | 0.00 | 0.00 | 64 | 1013.3 |
| 20260830234726 | 68 | 344 | 15.0 | 24.0 | 0.00 | 0.00 | 0.00 | 63 | 1013.4 |
| 20260830234225 | 69 | 330 | 9.0 | 24.0 | 0.00 | 0.00 | 0.00 | 63 | 1013.5 |
| 20260830233725 | 69 | 326 | 14.0 | 24.0 | 0.00 | 0.00 | 0.00 | 63 | 1013.5 |
| 20260830233225 | 69 | 337 | 13.0 | 20.0 | 0.00 | 0.00 | 0.00 | 63 | 1013.5 |
| 20260830232725 | 69 | 331 | 10.0 | 23.0 | 0.00 | 0.00 | 0.00 | 62 | 1013.6 |
| 20260830232225 | 69 | 315 | 11.0 | 23.0 | 0.00 | 0.00 | 0.00 | 62 | 1013.7 |
| 20260830231725 | 69 | 329 | 11.0 | 23.0 | 0.00 | 0.00 | 0.00 | 62 | 1013.7 |
| 20260830231225 | 69 | 345 | 10.0 | 23.0 | 0.00 | 0.00 | 0.00 | 62 | 1013.8 |
| 20260830230725 | 70 | 344 | 12.0 | 19.0 | 0.00 | 0.00 | 0.00 | 62 | 1013.8 |
| 20260830230225 | 69 | 319 | 12.0 | 26.0 | 0.00 | 0.00 | 0.00 | 62 | 1013.9 |
| 20260830225725 | 69 | 336 | 11.0 | 26.0 | 0.00 | 0.00 | 0.00 | 62 | 1014.0 |
| 20260830225225 | 69 | 345 | 14.0 | 26.0 | 0.00 | 0.00 | 0.00 | 62 | 1014.1 |
| 20260830224725 | 69 | 323 | 19.0 | 24.0 | 0.00 | 0.00 | 0.00 | 61 | 1014.2 |
| 20260830224225 | 70 | 348 | 14.0 | 24.0 | 0.00 | 0.00 | 0.00 | 61 | 1014.2 |
| 20260830223725 | 70 | 341 | 14.0 | 24.0 | 0.00 | 0.00 | 0.00 | 59 | 1014.2 |
| 20260830223225 | 70 | 313 | 15.0 | 23.0 | 0.00 | 0.00 | 0.00 | 58 | 1014.3 |
| 20260830222725 | 71 | 352 | 13.0 | 23.0 | 0.00 | 0.00 | 0.00 | 58 | 1014.4 |
| 20260830222225 | 71 | 343 | 11.0 | 23.0 | 0.00 | 0.00 | 0.00 | 58 | 1014.4 |
| 20260830221725 | 71 | 344 | 13.0 | 23.0 | 0.00 | 0.00 | 0.00 | 58 | 1014.5 |
| 20260830221225 | 71 | 0 | 12.0 | 23.0 | 0.00 | 0.00 | 0.00 | 58 | 1014.6 |
| 20260830220725 | 71 | 344 | 11.0 | 22.0 | 0.00 | 0.00 | 0.00 | 58 | 1014.6 |